DW9852 Weather Reports


Display with metric or nautical units.
time (UTC)temp
F
wind
direction
speed
MPH
gust
MPH
rain 1hr
in
rain 24hr
in
rain mn
in
humidity
%
barometer
mb
20260507024040 66 0 0.0 3.0 0.00 0.00 0.00 81 1015.2
20260507023538 66 28 0.0 3.0 0.00 0.00 0.00 82 1015.0
20260507023048 66 0 0.0 1.0 0.00 0.00 0.00 81 1014.8
20260507022540 66 0 0.0 0.0 0.00 0.00 0.00 81 1014.7
20260507022040 66 0 0.0 3.0 0.00 0.00 0.00 81 1014.7
20260507021549 67 0 0.0 3.0 0.00 0.00 0.00 81 1014.7
20260507021038 67 0 0.0 4.0 0.00 0.00 0.00 81 1014.7
20260507020540 67 0 0.0 8.0 0.00 0.00 0.00 81 1014.4
20260507020100 67 360 0.0 8.0 0.00 0.00 0.00 80 1014.5
20260507015539 67 0 2.0 8.0 0.00 0.00 0.00 80 1014.3
20260507015040 68 0 0.0 4.0 0.00 0.00 0.00 79 1014.1
20260507014557 68 0 0.0 4.0 0.00 0.00 0.00 79 1014.5
20260507014039 68 0 0.0 1.0 0.00 0.00 0.00 79 1013.5
20260507013542 68 0 0.0 3.0 0.00 0.00 0.00 79 1013.7
20260507013044 69 0 0.0 4.0 0.00 0.00 0.00 79 1013.7
20260507012542 69 0 0.0 6.0 0.00 0.00 0.00 79 1013.8
20260507012040 69 0 1.0 6.0 0.00 0.00 0.00 79 1013.5
20260507011555 69 0 0.0 4.0 0.00 0.00 0.00 78 1013.6
20260507011039 70 0 1.0 4.0 0.00 0.00 0.00 78 1013.7
20260507010539 70 0 0.0 4.0 0.00 0.00 0.00 78 1013.5
20260507010050 70 0 0.0 5.0 0.00 0.00 0.00 77 1013.5
20260507005540 70 0 0.0 5.0 0.00 0.00 0.00 77 1013.5
20260507005041 71 6 0.0 4.0 0.00 0.00 0.00 77 1013.5
20260507004550 71 0 0.0 4.0 0.00 0.00 0.00 77 1013.6
20260507004039 71 1 1.0 4.0 0.00 0.00 0.00 77 1013.1
20260507003544 71 0 2.0 6.0 0.00 0.00 0.00 77 1013.1
20260507003049 71 6 0.0 6.0 0.00 0.00 0.00 77 1012.8
20260507002539 72 11 1.0 6.0 0.00 0.00 0.00 77 1012.8
20260507002040 72 36 2.0 6.0 0.00 0.00 0.00 77 1012.9
20260507001613 72 13 3.0 5.0 0.00 0.00 0.00 76 1012.9
20260507001039 73 13 3.0 5.0 0.00 0.00 0.00 75 1013.0
20260507000544 73 1 0.0 8.0 0.00 0.00 0.00 75 1012.8
20260507000058 74 7 2.0 8.0 0.00 0.00 0.00 75 1012.7
20260506235541 74 17 3.0 11.0 0.00 0.00 0.00 74 1012.5
20260506235039 75 44 2.0 11.0 0.00 0.00 0.00 74 1012.4
20260506234548 75 356 4.0 11.0 0.00 0.00 0.00 72 1012.4
20260506234039 76 19 2.0 6.0 0.00 0.00 0.00 73 1012.1
20260506233540 77 13 2.0 6.0 0.00 0.00 0.00 73 1012.1
20260506233052 77 27 0.0 6.0 0.00 0.00 0.00 73 1012.1
20260506232539 77 11 3.0 6.0 0.00 0.00 0.00 74 1011.9
20260506232037 78 16 2.0 6.0 0.00 0.00 0.00 73 1011.9
20260506231544 78 15 3.0 6.0 0.00 0.00 0.00 72 1011.8
20260506231038 79 14 3.0 6.0 0.00 0.00 0.00 72 1011.7
20260506230541 79 11 0.0 7.0 0.00 0.00 0.00 73 1011.6
20260506230052 79 356 2.0 7.0 0.00 0.00 0.00 72 1011.5
20260506225540 79 13 2.0 7.0 0.00 0.00 0.00 73 1011.5
20260506225040 79 3 3.0 7.0 0.00 0.00 0.00 73 1011.6
20260506224548 80 13 3.0 5.0 0.00 0.00 0.00 72 1011.4
20260506224039 80 3 3.0 7.0 0.00 0.00 0.00 71 1011.3
20260506223538 81 10 2.0 7.0 0.00 0.00 0.00 71 1011.4
20260506223042 81 358 2.0 8.0 0.00 0.00 0.00 71 1011.2
20260506222539 82 15 2.0 8.0 0.00 0.00 0.00 72 1011.1
20260506222041 82 11 3.0 7.0 0.00 0.00 0.00 73 1011.0
20260506221547 82 20 3.0 7.0 0.00 0.00 0.00 73 1011.0
20260506221038 82 24 2.0 7.0 0.00 0.00 0.00 73 1011.0
20260506220540 82 27 3.0 7.0 0.00 0.00 0.00 73 1010.8
20260506220059 83 14 2.0 5.0 0.00 0.00 0.00 73 1010.9
20260506215541 83 13 2.0 6.0 0.00 0.00 0.00 72 1010.9
20260506215041 84 6 2.0 6.0 0.00 0.00 0.00 70 1010.7
20260506214552 85 0 0.0 6.0 0.00 0.00 0.00 68 1010.8
20260506214040 86 39 2.0 6.0 0.00 0.00 0.00 67 1010.6
20260506213539 87 49 0.0 5.0 0.00 0.00 0.00 68 1010.8
20260506213055 87 0 0.0 5.0 0.00 0.00 0.00 68 1010.7
20260506212540 87 24 0.0 9.0 0.00 0.00 0.00 67 1010.7
20260506212041 87 0 3.0 9.0 0.00 0.00 0.00 67 1010.8
20260506211547 87 41 1.0 5.0 0.00 0.00 0.00 67 1010.7
20260506211039 88 49 0.0 3.0 0.00 0.00 0.00 64 1010.8
20260506210542 88 79 1.0 4.0 0.00 0.00 0.00 66 1010.8
20260506210100 88 190 1.0 8.0 0.00 0.00 0.00 67 1010.8
20260506205539 88 171 2.0 8.0 0.00 0.00 0.00 65 1011.0
20260506205041 88 32 2.0 8.0 0.00 0.00 0.00 66 1011.1
20260506204550 88 0 0.0 4.0 0.00 0.00 0.00 64 1010.8
20260506204039 87 0 0.0 6.0 0.00 0.00 0.00 64 1010.8
20260506203540 88 18 2.0 6.0 0.00 0.00 0.00 66 1011.0
20260506203121 87 0 3.0 6.0 0.00 0.00 0.00 68 1011.0
20260506202540 88 53 1.0 5.0 0.00 0.00 0.00 66 1011.1
20260506202040 88 37 2.0 6.0 0.00 0.00 0.00 67 1011.2
20260506201549 88 0 2.0 6.0 0.00 0.00 0.00 66 1011.2
20260506201039 88 0 0.0 0.0 0.00 0.00 0.00 69 1011.3
20260506200539 86 0 0.0 0.0 0.00 0.00 0.00 67 1011.5
20260506200051 86 0 0.0 4.0 0.00 0.00 0.00 70 1011.6
20260506195538 85 0 0.0 5.0 0.00 0.00 0.00 71 1011.7
20260506195039 85 65 1.0 5.0 0.00 0.00 0.00 71 1011.8
20260506194549 86 0 0.0 1.0 0.00 0.00 0.00 72 1011.5
20260506194040 86 0 0.0 3.0 0.00 0.00 0.00 71 1011.5
20260506193540 86 0 0.0 3.0 0.00 0.00 0.00 72 1011.7
20260506193045 86 37 0.0 5.0 0.00 0.00 0.00 71 1011.8
20260506192540 85 0 0.0 5.0 0.00 0.00 0.00 72 1011.8
20260506192040 84 0 3.0 5.0 0.00 0.00 0.00 75 1011.7
20260506191550 84 94 2.0 4.0 0.00 0.00 0.00 72 1011.8
20260506191040 84 0 1.0 5.0 0.00 0.00 0.00 75 1011.9
20260506190540 84 94 1.0 5.0 0.00 0.00 0.00 72 1011.9
20260506190053 84 0 1.0 4.0 0.00 0.00 0.00 76 1012.0
20260506185540 83 0 0.0 4.0 0.00 0.00 0.00 77 1011.9
20260506185039 83 0 0.0 5.0 0.00 0.00 0.00 77 1012.0
20260506184556 83 18 1.0 6.0 0.00 0.00 0.00 78 1012.1
20260506184039 82 0 0.0 6.0 0.00 0.00 0.00 78 1012.2
20260506183538 81 76 0.0 2.0 0.00 0.00 0.00 80 1012.2
20260506183049 81 0 0.0 1.0 0.00 0.00 0.00 80 1012.3
20260506182541 81 18 0.0 2.0 0.00 0.00 0.00 81 1012.5
20260506182042 80 0 0.0 2.0 0.00 0.00 0.00 81 1012.7
20260506181600 80 0 0.0 2.0 0.00 0.00 0.00 81 1012.7
20260506181040 81 0 0.0 2.0 0.00 0.00 0.00 81 1012.7
20260506180540 81 29 0.0 2.0 0.00 0.00 0.00 80 1012.8
20260506180046 81 0 0.0 2.0 0.00 0.00 0.00 80 1012.7
20260506175539 81 0 0.0 2.0 0.00 0.00 0.00 79 1012.8
20260506175043 82 0 0.0 4.0 0.00 0.00 0.00 78 1012.8
20260506174604 81 0 0.0 4.0 0.00 0.00 0.00 79 1012.7
20260506174040 81 75 0.0 4.0 0.00 0.00 0.00 80 1012.8
20260506173539 81 78 0.0 4.0 0.00 0.00 0.00 80 1012.8
20260506173056 81 0 1.0 4.0 0.00 0.00 0.00 82 1012.8
20260506172539 81 0 0.0 4.0 0.00 0.00 0.00 81 1012.8
20260506172040 81 0 0.0 4.0 0.00 0.00 0.00 81 1012.8
20260506171547 80 14 0.0 5.0 0.00 0.00 0.00 82 1012.9
20260506171040 80 27 1.0 5.0 0.00 0.00 0.00 81 1012.9
20260506170539 80 0 0.0 1.0 0.00 0.00 0.00 83 1012.9
20260506170050 80 0 0.0 2.0 0.00 0.00 0.00 83 1012.9
20260506165540 79 0 0.0 4.0 0.00 0.00 0.00 84 1013.0
20260506165040 79 32 1.0 4.0 0.00 0.00 0.00 84 1013.0
20260506164547 79 0 0.0 3.0 0.00 0.00 0.00 85 1013.0
20260506164038 79 41 0.0 2.0 0.00 0.00 0.00 85 1013.0
20260506163538 79 8 0.0 3.0 0.00 0.00 0.00 85 1012.8
20260506163103 79 0 0.0 3.0 0.00 0.00 0.00 85 1012.8
20260506162539 79 0 1.0 3.0 0.00 0.00 0.00 85 1012.9
20260506162040 79 47 0.0 3.0 0.00 0.00 0.00 86 1012.9
20260506161549 78 0 0.0 3.0 0.00 0.00 0.00 87 1012.8
20260506161044 78 0 1.0 3.0 0.00 0.00 0.00 87 1012.7
20260506160539 78 0 0.0 2.0 0.00 0.00 0.00 87 1012.7
20260506160051 78 43 0.0 3.0 0.00 0.00 0.00 87 1012.8
20260506155540 78 0 0.0 3.0 0.00 0.00 0.00 87 1012.6
20260506155040 78 55 0.0 3.0 0.00 0.00 0.00 87 1012.6
20260506154553 77 0 0.0 0.0 0.00 0.00 0.00 88 1012.5
20260506154043 77 0 0.0 0.0 0.00 0.00 0.00 88 1012.5
20260506153541 0 0.0 0.0 0.00 0.00 0.00 1012.5
20260506153044 0 0.0 0.0 0.00 0.00 0.00 1012.4
20260506152538 0 0.0 0.0 0.00 0.00 0.00 1012.3
20260506152040 0 0.0 0.0 0.00 0.00 0.00 1012.1
20260506151551 0 0.0 0.0 0.00 0.00 0.00 1012.1
20260506151038 0 0.0 0.0 0.00 0.00 0.00 1012.1
20260506150537 0 0.0 0.0 0.00 0.00 0.00 1012.1
20260506150050 0 0.0 0.0 0.00 0.00 0.00 1012.1
20260506145541 0 0.0 0.0 0.00 0.00 0.00 1012.1
20260506145037 0 0.0 0.0 0.00 0.00 0.00 1012.0
20260506144548 0 0.0 0.0 0.00 0.00 0.00 1012.0
20260506144040 0 0.0 0.0 0.00 0.00 0.00 1011.9
20260506143537 0 0.0 0.0 0.00 0.00 0.00 1011.8
20260506143049 0 0.0 0.0 0.00 0.00 0.00 1011.7
20260506142538 0 0.0 0.0 0.00 0.00 0.00 1011.6
20260506142037 0 0.0 0.0 0.00 0.00 0.00 1011.5
20260506141550 0 0.0 0.0 0.00 0.00 0.00 1011.5
20260506141039 0 0.0 0.0 0.00 0.00 0.00 1011.5
20260506140544 0 0.0 0.0 0.00 0.00 0.00 1011.4
20260506140050 0 0.0 0.0 0.00 0.00 0.00 1011.3
20260506135539 0 0.0 0.0 0.00 0.00 0.00 1011.2
20260506135039 0 0.0 0.0 0.00 0.00 0.00 1011.1
20260506134554 0 0.0 0.0 0.00 0.00 0.00 1010.9
20260506134038 0 0.0 0.0 0.00 0.00 0.00 1010.8
20260506133538 0 0.0 0.0 0.00 0.00 0.00 1010.8
20260506133050 0 0.0 0.0 0.00 0.00 0.00 1010.8
20260506132541 0 0.0 0.0 0.00 0.00 0.00 1010.8
20260506132038 0 0.0 0.0 0.00 0.00 0.00 1010.8
20260506131551 0 0.0 0.0 0.00 0.00 0.00 1010.6
20260506131039 0 0.0 0.0 0.00 0.00 0.00 1010.5
20260506130538 0 0.0 0.0 0.00 0.00 0.00 1010.4
20260506130043 0 0.0 0.0 0.00 0.00 0.00 1010.3
20260506125540 0 0.0 0.0 0.00 0.00 0.00 1010.4
20260506125038 0 0.0 0.0 0.00 0.00 0.00 1010.4
20260506124549 0 0.0 0.0 0.00 0.00 0.00 1010.5
20260506124038 0 0.0 0.0 0.00 0.00 0.00 1010.6
20260506123538 0 0.0 0.0 0.00 0.00 0.00 1010.6
20260506123052 0 0.0 0.0 0.00 0.00 0.00 1010.5
20260506122539 0 0.0 0.0 0.00 0.00 0.00 1010.7
20260506122038 0 0.0 0.0 0.00 0.00 0.00 1010.6
20260506121557 0 0.0 0.0 0.00 0.00 0.00 1010.5
20260506121038 0 0.0 0.0 0.00 0.00 0.00 1010.5
20260506120538 0 0.0 0.0 0.00 0.00 0.00 1010.5
20260506120056 0 0.0 0.0 0.00 0.00 0.00 1010.4
20260506115542 0 0.0 0.0 0.00 0.00 0.00 1010.4
20260506115039 0 0.0 0.0 0.00 0.00 0.00 1010.5
20260506114542 0 0.0 0.0 0.00 0.00 0.00 1010.4
20260506114040 0 0.0 0.0 0.00 0.00 0.00 1010.3
20260506113539 0 0.0 0.0 0.00 0.00 0.00 1010.2
20260506113050 0 0.0 0.0 0.00 0.00 0.00 1010.2
20260506112541 0 0.0 0.0 0.00 0.00 0.00 1010.4
20260506112039 0 0.0 0.0 0.00 0.00 0.00 1010.3
20260506111548 0 0.0 0.0 0.00 0.00 0.00 1010.2
20260506111040 0 0.0 0.0 0.00 0.00 0.00 1010.2
20260506110540 0 0.0 0.0 0.00 0.00 0.00 1010.4
20260506105540 0 0.0 0.0 0.00 0.00 0.00 1010.3
20260506105039 0 0.0 0.0 0.00 0.00 0.00 1010.2
20260506104550 0 0.0 0.0 0.00 0.00 0.00 1010.1
20260506104039 0 0.0 0.0 0.00 0.00 0.00 1010.1
20260506103540 0 0.0 0.0 0.00 0.00 0.00 1010.0
20260506103056 0 0.0 0.0 0.00 0.00 0.00 1010.1
20260506102539 0 0.0 0.0 0.00 0.00 0.00 1010.1
20260506102041 0 0.0 0.0 0.00 0.00 0.00 1009.9
20260506101554 0 0.0 0.0 0.00 0.00 0.00 1010.1
20260506101039 0 0.0 0.0 0.00 0.00 0.00 1010.0
20260506100539 0 0.0 0.0 0.00 0.00 0.00 1009.9
20260506100050 0 0.0 0.0 0.00 0.00 0.00 1010.1
20260506095539 0 0.0 0.0 0.00 0.00 0.00 1010.1
20260506095040 0 0.0 0.0 0.00 0.00 0.00 1010.0
20260506094548 0 0.0 0.0 0.00 0.00 0.00 1010.0
20260506094038 0 0.0 0.0 0.00 0.00 0.00 1010.1
20260506093542 0 0.0 0.0 0.00 0.00 0.00 1009.9
20260506093058 0 0.0 0.0 0.00 0.00 0.00 1010.0
20260506092540 0 0.0 0.0 0.00 0.00 0.00 1010.1
20260506092039 0 0.0 0.0 0.00 0.00 0.00 91 1010.0
20260506091549 0 0.0 0.0 0.00 0.00 0.00 91 1010.0
20260506091039 75 203 1.0 6.0 0.00 0.00 0.00 91 1010.1
20260506090540 75 0 1.0 7.0 0.00 0.00 0.00 90 1010.0
20260506090100 75 0 2.0 7.0 0.00 0.00 0.00 91 1010.0
20260506085539 75 0 0.0 7.0 0.00 0.00 0.00 91 1010.0
20260506085040 75 0 3.0 7.0 0.00 0.00 0.00 91 1010.3
20260506084557 75 208 2.0 6.0 0.00 0.00 0.00 90 1010.2
20260506084039 75 195 0.0 6.0 0.00 0.00 0.00 90 1010.2
20260506083540 75 226 1.0 6.0 0.00 0.00 0.00 91 1010.3
20260506083049 75 203 2.0 5.0 0.00 0.00 0.00 90 1010.4
20260506082540 75 0 0.0 2.0 0.00 0.00 0.00 90 1010.4
20260506082040 76 0 0.0 5.0 0.00 0.00 0.00 90 1010.3
20260506081603 75 0 2.0 5.0 0.00 0.00 0.00 90 1010.4
20260506081043 75 233 2.0 8.0 0.00 0.00 0.00 90 1010.3
20260506080540 75 0 1.0 8.0 0.00 0.00 0.00 90 1010.5
20260506073047 76 174 0.0 6.0 0.00 0.00 0.00 90 1010.4
20260506072539 76 192 0.0 6.0 0.00 0.00 0.00 90 1010.6
20260506072041 76 117 2.0 5.0 0.00 0.00 0.00 90 1010.4
20260506071544 76 198 1.0 8.0 0.00 0.00 0.00 89 1010.6
20260506071044 76 216 1.0 8.0 0.00 0.00 0.00 90 1010.7
20260506070539 76 158 3.0 8.0 0.00 0.00 0.00 90 1010.7
20260506062039 76 215 2.0 8.0 0.00 0.00 0.00 90 1010.6
20260506061550 76 49 3.0 8.0 0.00 0.00 0.00 90 1010.6
20260506061039 76 52 1.0 8.0 0.00 0.00 0.00 90 1010.5
20260506060539 76 31 1.0 10.0 0.00 0.00 0.00 90 1010.6
20260506051037 76 0 1.0 6.0 0.00 0.00 0.00 90 1010.7
20260506050539 76 214 1.0 6.0 0.00 0.00 0.00 89 1010.5
20260506050112 77 165 2.0 6.0 0.00 0.00 0.00 89 1010.3
20260506045039 76 0 1.0 6.0 0.00 0.00 0.00 89 1010.4
20260506044551 77 186 1.0 7.0 0.00 0.00 0.00 89 1010.3
20260506044104 77 215 2.0 8.0 0.00 0.00 0.00 89 1010.4
20260506043539 77 68 3.0 8.0 0.00 0.00 0.00 89 1010.4
20260506043050 77 234 2.0 8.0 0.00 0.00 0.00 89 1010.4
20260506042540 77 212 4.0 8.0 0.00 0.00 0.00 88 1010.4
20260506042042 77 198 3.0 9.0 0.00 0.00 0.00 88 1010.2
20260506041601 77 195 3.0 9.0 0.00 0.00 0.00 88 1010.3
20260506041041 77 86 3.0 8.0 0.00 0.00 0.00 88 1010.2
20260506040539 77 102 1.0 7.0 0.00 0.00 0.00 87 1010.0
20260506040049 78 193 2.0 9.0 0.00 0.00 0.00 87 1010.0
20260506035541 78 89 2.0 9.0 0.00 0.00 0.00 87 1010.1
20260506035039 78 196 2.0 10.0 0.00 0.00 0.00 87 1009.9
20260506034553 78 67 4.0 10.0 0.00 0.00 0.00 87 1010.0
20260506034039 78 203 4.0 9.0 0.00 0.00 0.00 87 1009.9
20260506033539 78 200 2.0 7.0 0.00 0.00 0.00 86 1009.7
20260506033047 79 138 3.0 7.0 0.00 0.00 0.00 86 1009.8
20260506032543 79 63 3.0 9.0 0.00 0.00 0.00 86 1009.7
20260506032039 79 183 3.0 9.0 0.00 0.00 0.00 85 1009.7
20260506031549 79 94 3.0 10.0 0.00 0.00 0.00 85 1009.8
20260506031040 79 178 2.0 10.0 0.00 0.00 0.00 85 1009.7
20260506030545 80 120 2.0 10.0 0.00 0.00 0.00 84 1009.5
20260506030050 80 157 1.0 6.0 0.00 0.00 0.00 84 1009.6
20260506025539 80 45 1.0 8.0 0.00 0.00 0.00 84 1009.5
20260506025039 80 176 2.0 9.0 0.00 0.00 0.00 84 1009.3
20260506024606 80 106 2.0 9.0 0.00 0.00 0.00 84 1009.3